When you browse on this site, cookies collect data to enhance your experience and personalize the content and advertising you see.
Visit our Privacy Policy to learn more. By continuing to use the site, you agree to this use of cookies and data.
  • In Deutschland
  • Länderverzeichnis
  • Für 7 Tage
  • Wassertemperatur
  • Wetterkarte
  • Widgets
  • user-avatar
    Anmelden

    Stündliche Wetter Belmopan

    Heute, 23 September, Montag

    Zeit Temperatur Niederschläge Wind Luftdruck Luftfeuchtigkeit
    00:00 +23°C° 0 mm 0 m/S 751 mmHg 96%
    01:00 +23°C° 0 mm 0 m/S 751 mmHg 96%
    02:00 +23°C° 0 mm 0 m/S 751 mmHg 96%
    03:00 +23°C° 0 mm 0 m/S 750 mmHg 96%
    04:00 +23°C° 0 mm 0 m/S 751 mmHg 96%
    05:00 +23°C° 0 mm 0 m/S 751 mmHg 96%
    06:00 +23°C° 0 mm 0 m/S 751 mmHg 96%
    07:00 +27°C° 0 mm 1 m/S 751 mmHg 85%
    08:00 +30°C° 0 mm 1 m/S 752 mmHg 73%
    09:00 +32°C° 0 mm 1 m/S 752 mmHg 62%
    10:00 +34°C° 0 mm 1 m/S 752 mmHg 56%
    11:00 +36°C° 0 mm 1 m/S 751 mmHg 49%
    12:00 +39°C° 0 mm 1 m/S 750 mmHg 43%
    13:00 +37°C° 0.1 mm 1 m/S 750 mmHg 45%
    14:00 +37°C° 0.1 mm 1 m/S 749 mmHg 47%
    15:00 +36°C° 0.1 mm 1 m/S 748 mmHg 49%
    16:00 +34°C° 0.1 mm 1 m/S 748 mmHg 58%
    17:00 +32°C° 0.1 mm 1 m/S 748 mmHg 68%
    18:00 +30°C° 0.1 mm 1 m/S 749 mmHg 77%
    19:00 +29°C° 0.1 mm 1 m/S 749 mmHg 82%
    20:00 +28°C° 0.1 mm 1 m/S 750 mmHg 87%
    21:00 +25°C° 0.1 mm 0 m/S 750 mmHg 92%
    22:00 +24°C° 0 mm 0 m/S 750 mmHg 93%
    23:00 +24°C° 0 mm 0 m/S 750 mmHg 93%

    Morgen, 24 September, Dienstag

    Zeit Temperatur Niederschläge Wind Luftdruck Luftfeuchtigkeit
    00:00 +24°C° 0 mm 0 m/S 750 mmHg 94%
    01:00 +24°C° 0 mm 0 m/S 750 mmHg 95%
    02:00 +23°C° 0 mm 0 m/S 749 mmHg 95%
    03:00 +25°C° 0 mm 1 m/S 749 mmHg 96%
    04:00 +25°C° 0 mm 1 m/S 749 mmHg 96%
    05:00 +25°C° 0 mm 1 m/S 750 mmHg 96%
    06:00 +25°C° 0 mm 1 m/S 750 mmHg 96%
    07:00 +28°C° 0 mm 1 m/S 750 mmHg 85%
    08:00 +30°C° 0 mm 1 m/S 750 mmHg 74%
    09:00 +33°C° 0 mm 1 m/S 751 mmHg 63%
    10:00 +35°C° 0 mm 1 m/S 750 mmHg 57%
    11:00 +36°C° 0 mm 1 m/S 750 mmHg 51%
    12:00 +39°C° 0 mm 1 m/S 749 mmHg 44%
    13:00 +37°C° 0.3 mm 1 m/S 749 mmHg 49%
    14:00 +36°C° 0.3 mm 1 m/S 748 mmHg 55%
    15:00 +34°C° 0.3 mm 1 m/S 747 mmHg 60%
    16:00 +33°C° 1 mm 1 m/S 747 mmHg 69%
    17:00 +31°C° 1 mm 1 m/S 748 mmHg 77%
    18:00 +29°C° 1 mm 1 m/S 748 mmHg 86%
    19:00 +28°C° 0.6 mm 1 m/S 748 mmHg 88%
    20:00 +28°C° 0.6 mm 1 m/S 749 mmHg 91%
    21:00 +25°C° 0.6 mm 0 m/S 749 mmHg 93%
    22:00 +27°C° 0.7 mm 1 m/S 749 mmHg 94%
    23:00 +26°C° 0.7 mm 1 m/S 749 mmHg 95%

    übermorgen, 25 September, Mittwoch

    Zeit Temperatur Niederschläge Wind Luftdruck Luftfeuchtigkeit
    00:00 +26°C° 0.7 mm 1 m/S 749 mmHg 96%
    01:00 +26°C° 1.6 mm 1 m/S 749 mmHg 97%
    02:00 +25°C° 1.6 mm 1 m/S 749 mmHg 98%
    03:00 +25°C° 1.6 mm 1 m/S 749 mmHg 98%
    04:00 +25°C° 0.5 mm 1 m/S 749 mmHg 98%
    05:00 +25°C° 0.5 mm 1 m/S 749 mmHg 98%
    06:00 +25°C° 0.5 mm 1 m/S 749 mmHg 98%
    07:00 +27°C° 0 mm 1 m/S 750 mmHg 91%
    08:00 +29°C° 0 mm 1 m/S 750 mmHg 84%
    09:00 +30°C° 0 mm 1 m/S 751 mmHg 76%
    10:00 +32°C° 0.2 mm 1 m/S 750 mmHg 68%
    11:00 +34°C° 0.2 mm 1 m/S 749 mmHg 60%
    12:00 +36°C° 0.2 mm 2 m/S 749 mmHg 52%
    13:00 +36°C° 0.2 mm 1 m/S 748 mmHg 50%
    14:00 +37°C° 0.2 mm 1 m/S 748 mmHg 47%
    15:00 +35°C° 0.2 mm 0 m/S 747 mmHg 45%
    16:00 +35°C° 0.4 mm 1 m/S 747 mmHg 57%
    17:00 +32°C° 0.4 mm 1 m/S 747 mmHg 70%
    18:00 +29°C° 0.4 mm 1 m/S 747 mmHg 83%
    19:00 +28°C° 0.5 mm 1 m/S 748 mmHg 86%
    20:00 +28°C° 0.5 mm 1 m/S 748 mmHg 89%
    21:00 +27°C° 0.5 mm 1 m/S 749 mmHg 92%
    22:00 +27°C° 0.2 mm 1 m/S 749 mmHg 94%
    23:00 +26°C° 0.2 mm 1 m/S 749 mmHg 95%

    26 September, Donnerstag

    Zeit Temperatur Niederschläge Wind Luftdruck Luftfeuchtigkeit
    00:00 +24°C° 0.2 mm 0 m/S 749 mmHg 96%
    01:00 +24°C° 0.1 mm 0 m/S 748 mmHg 96%
    02:00 +24°C° 0.1 mm 0 m/S 748 mmHg 96%
    03:00 +23°C° 0.1 mm 0 m/S 748 mmHg 96%
    04:00 +25°C° 0.8 mm 1 m/S 748 mmHg 97%
    05:00 +25°C° 0.8 mm 1 m/S 748 mmHg 97%
    06:00 +25°C° 0.8 mm 1 m/S 749 mmHg 98%
    07:00 +27°C° 0.2 mm 1 m/S 749 mmHg 90%
    08:00 +29°C° 0.2 mm 1 m/S 749 mmHg 82%
    09:00 +31°C° 0.2 mm 1 m/S 750 mmHg 74%
    10:00 +32°C° 0.2 mm 1 m/S 749 mmHg 67%
    11:00 +34°C° 0.2 mm 1 m/S 749 mmHg 59%
    12:00 +36°C° 0.2 mm 1 m/S 748 mmHg 51%
    13:00 +36°C° 0.2 mm 1 m/S 748 mmHg 53%
    14:00 +35°C° 0.2 mm 1 m/S 747 mmHg 55%
    15:00 +35°C° 0.2 mm 1 m/S 746 mmHg 56%
    16:00 +33°C° 0.9 mm 1 m/S 746 mmHg 69%
    17:00 +30°C° 0.9 mm 1 m/S 747 mmHg 81%
    18:00 +28°C° 0.9 mm 1 m/S 747 mmHg 93%
    19:00 +27°C° 0.1 mm 1 m/S 748 mmHg 94%
    20:00 +27°C° 0.1 mm 1 m/S 748 mmHg 95%
    21:00 +26°C° 0.1 mm 1 m/S 749 mmHg 97%
    22:00 +26°C° 0.1 mm 1 m/S 749 mmHg 97%
    23:00 +26°C° 0.1 mm 1 m/S 749 mmHg 97%

    27 September, Freitag

    Zeit Temperatur Niederschläge Wind Luftdruck Luftfeuchtigkeit
    00:00 +24°C° 0.1 mm 0 m/S 748 mmHg 97%
    01:00 +24°C° 0.1 mm 0 m/S 748 mmHg 97%
    02:00 +23°C° 0.1 mm 0 m/S 748 mmHg 97%
    03:00 +23°C° 0.1 mm 0 m/S 747 mmHg 97%
    04:00 +23°C° 0 mm 0 m/S 747 mmHg 97%
    05:00 +23°C° 0 mm 0 m/S 748 mmHg 97%
    06:00 +23°C° 0 mm 0 m/S 748 mmHg 96%
    07:00 +25°C° 0 mm 0 m/S 748 mmHg 86%
    08:00 +28°C° 0 mm 0 m/S 749 mmHg 76%
    09:00 +32°C° 0 mm 1 m/S 749 mmHg 65%
    10:00 +34°C° 0 mm 1 m/S 749 mmHg 58%
    11:00 +35°C° 0 mm 1 m/S 749 mmHg 50%
    12:00 +37°C° 0 mm 1 m/S 748 mmHg 43%
    13:00 +37°C° 0 mm 2 m/S 748 mmHg 45%
    14:00 +37°C° 0 mm 2 m/S 747 mmHg 47%
    15:00 +37°C° 0 mm 3 m/S 746 mmHg 49%
    16:00 +35°C° 0 mm 2 m/S 746 mmHg 58%
    17:00 +32°C° 0 mm 2 m/S 747 mmHg 68%
    18:00 +29°C° 0 mm 1 m/S 747 mmHg 77%
    19:00 +28°C° 0 mm 1 m/S 747 mmHg 82%
    20:00 +28°C° 0 mm 1 m/S 748 mmHg 88%
    21:00 +27°C° 0 mm 1 m/S 748 mmHg 93%
    22:00 +27°C° 0.6 mm 1 m/S 748 mmHg 94%
    23:00 +26°C° 0.6 mm 1 m/S 748 mmHg 96%

    28 September, Samstag

    Zeit Temperatur Niederschläge Wind Luftdruck Luftfeuchtigkeit
    00:00 +24°C° 0.6 mm 0 m/S 748 mmHg 98%
    01:00 +24°C° 0 mm 0 m/S 748 mmHg 98%
    02:00 +24°C° 0 mm 0 m/S 747 mmHg 97%
    03:00 +24°C° 0 mm 0 m/S 747 mmHg 97%
    04:00 +24°C° 0 mm 0 m/S 747 mmHg 96%
    05:00 +24°C° 0 mm 0 m/S 747 mmHg 96%
    06:00 +24°C° 0 mm 0 m/S 748 mmHg 95%
    07:00 +28°C° 0 mm 1 m/S 748 mmHg 84%
    08:00 +31°C° 0 mm 1 m/S 749 mmHg 72%
    09:00 +33°C° 0 mm 1 m/S 749 mmHg 60%
    10:00 +36°C° 0 mm 2 m/S 749 mmHg 54%
    11:00 +37°C° 0 mm 2 m/S 749 mmHg 48%
    12:00 +39°C° 0 mm 2 m/S 748 mmHg 42%
    13:00 +38°C° 0 mm 3 m/S 748 mmHg 43%
    14:00 +38°C° 0 mm 3 m/S 747 mmHg 45%
    15:00 +38°C° 0 mm 3 m/S 747 mmHg 46%
    16:00 +35°C° 0 mm 3 m/S 747 mmHg 57%
    17:00 +32°C° 0 mm 2 m/S 747 mmHg 67%
    18:00 +30°C° 0 mm 2 m/S 748 mmHg 78%
    19:00 +29°C° 0.2 mm 1 m/S 748 mmHg 83%
    20:00 +28°C° 0.2 mm 1 m/S 749 mmHg 89%
    21:00 +27°C° 0.2 mm 1 m/S 750 mmHg 94%
    22:00 +27°C° 0.9 mm 1 m/S 750 mmHg 95%
    23:00 +25°C° 0.9 mm 0 m/S 750 mmHg 96%
    Mehr zeigen